Zurück zum Katalog

SL-8 DEB

AktivLEO
NORAD 39698·DEBRIS·🇷🇺 Russia

Gestartet Feb 12, 1991 von Plesetsk Cosmodrome

Loading…

Nächste Überflüge (nächste 24 Stunden)

TLE

AlterndSource: Space-Track

Epoche: Sep 8, 2026, 06:06 UTC

1 39698U 91009DM  26251.25437565  .00000093  00000-0  95304-3 0  9993
2 39698  74.0439  88.8657 0181769 144.2065 335.0351 12.21979601552527

Verfolge SL-8 DEB in Echtzeit mit AllMySat

Download on the App Store